World > North America > United States > New York

Hourly Solsville, NY Regional Weather

Feedback E-mail the Weather

Latest News

Solsville, NY Weather Maps

°F °C°F °C
Solsville Weather Map
UTC Time: 5/24/2022, 21:37
Your Time:

Solsville, NY Regional Weather

Expires:202205242200;;522188
ASUS41 KBGM 242110
RWRBGM

REGIONAL WEATHER ROUNDUP
NATIONAL WEATHER SERVICE BINGHAMTON NY
500 PM EDT TUE MAY 24 2022

Note: "fair" indicates few or no clouds below 12,000 feet with no
significant weather and/or obstructions to visibility.

* = Station(s) that does not report precipitation, such as rain, 
snow, etc, also no thunder or fog.


NYZ009-015>018-022>025-036-037-044>046-055>057-062-242200
...Central New York...
  
CITY           SKY/WX    TMP DP  RH WIND       PRES   REMARKS
Binghamton     CLOUDY    62  49  62 S8        30.26S                  
Cortland       FAIR      68  50  52 SW8G16    30.24F                  
Dansville      FAIR      72  48  42 E6        30.19F                  
Elmira         CLOUDY    65  50  58 S8        30.23F                  
Endicott       CLOUDY    64  50  59 S6        30.25F                  
Ithaca         FAIR      69  51  52 S13       30.25S                  
Hamilton       MOSUNNY   66  48  52 S9        30.23F                  
Monticello     CLOUDY    64  49  57 S7        30.30S                  
Norwich        SUNNY     66  48  52 S8        30.27S                  
Oneonta        MOSUNNY   64  46  52 W9        30.26F                  
Penn Yan       FAIR      71  48  43 SE10      30.22F                  
Rome           PTSUNNY   71  48  43 N5        30.23F                  
Seneca Falls   CLEAR     70  43  37 CALM      30.22F                  
Sidney         PTSUNNY   64  52  63 W7        30.25F                  
Skaneateles    MOCLDY    68  48  49 E5        30.23S                  
Syracuse       FAIR      72  47  40 N5        30.22F                  
$$
 

SKY/WX - Weather  TMP - Temperature  DP - Dew Point  RH - Humidity
WIND - Wind Direction/Speed PRES - Barometric Pressure VSB - Visibility
WCI - Wind Chill Index E13G22 Wind - East Wind 13 mph/Gusts of 22 mph

Trending Headlines

Solsville Radar Loop



Solsville Quick Facts


National Two Day Weather Forecast


E-mail the Solsville Weather Forecast

Voice your opinion or tell us about page issues...